Cloud_Cover
100 100 100 100 0 0 0 0 0 5 71 100 58 76 100 100 100 100 82 83 94 100 99 100 99 86 100 95 99 91 100 100 100 100 100 100 100 100 100 97 100 100 100
100 100 31 0 2 4 0 0 0 0 5 6 6 5 29 100 100 100 100 100 100 100 100 100 100 100 95 90 100 100 100 100 100 100 100 100 100 100 100 100 100 100 100
100 92 11 8 15 10 0 5 2 1 2 20 4 4 5 32 6 58 99 100 100 100 100 100 100 100 100 100 100 100 100 100 100 100 100 100 100 100 100 100 100 100 100
100 100 100 31 12 9 26 57 90 63 90 100 100 92 11 35 75 97 24 45 100 100 100 100 100 100 98 100 100 100 100 100 100 100 100 100 100 100 100 100 100 100 100
99 99 100 99 100 100 100 100 100 100 100 100 100 100 100 94 100 82 100 27 52 100 99 100 100 100 100 100 95 92 100 100 100 100 100 100 100 100 100 100 100 100 100
100 100 100 100 100 100 100 100 100 100 100 100 100 100 100 100 100 100 99 97 71 5 78 88 97 83 100 93 95 100 100 100 100 100 100 100 100 100 100 100 100 100 100
100 100 100 100 100 100 100 100 100 100 100 100 100 100 100 100 100 76 100 67 79 86 50 0 4 5 48 98 95 97 100 100 100 100 100 100 100 100 100 100 100 100 100
100 100 100 100 100 100 100 100 100 100 100 100 100 100 100 99 87 100 100 78 66 25 9 5 55 7 88 85 99 100 79 91 100 100 100 100 100 100 100 100 100 100 100
100 100 100 100 100 100 100 100 100 100 100 100 100 100 100 100 100 100 100 100 100 31 98 32 31 3 44 97 18 10 98 79 84 100 99 97 48 37 97 100 100 100 100
100 100 100 100 100 100 100 100 100 100 100 100 100 100 100 100 100 100 100 100 99 3 4 2 29 31 63 84 17 51 6 60 75 60 87 69 46 8 58 95 100 100 100
100 100 100 100 100 100 100 100 100 100 100 100 100 99 100 100 100 100 41 89 67 46 6 47 0 1 0 7 46 20 86 93 100 95 81 85 93 29 28 81 100 100 100
100 100 100 100 100 100 100 100 100 100 100 100 98 99 100 100 100 100 100 100 92 100 68 75 9 3 0 2 24 7 34 5 33 65 91 25 70 70 56 39 52 74 96
100 100 97 100 86 68 100 42 100 100 100 100 43 68 100 100 100 100 100 100 99 100 98 53 5 40 36 13 5 7 5 5 10 38 81 81 7 5 6 37 39 38 56
99 63 32 13 36 91 91 75 100 100 100 100 100 100 100 100 100 100 100 100 100 100 100 93 20 38 80 7 64 10 5 8 56 19 30 80 99 100 100 88 71 100 100
86 100 92 71 97 100 98 100 100 100 100 100 100 100 100 100 100 100 100 100 100 100 100 73 56 88 20 22 85 100 66 80 17 38 93 50 100 100 100 100 89 100 100
100 98 100 97 100 100 100 100 100 100 100 100 100 100 100 100 100 100 100 100 100 100 92 100 95 100 92 100 99 99 65 89 99 100 99 100 100 96 95 100 100 94 100
52 48 80 100 100 100 81 88 100 100 100 100 100 100 100 100 100 100 100 100 100 95 98 99 99 100 100 100 99 100 100 100 100 100 100 100 100 100 100 100 93 100 100
96 70 54 100 100 100 100 100 100 100 100 100 100 100 100 100 100 100 100 100 100 100 100 92 99 99 100 100 100 100 100 100 99 100 100 100 88 99 100 100 100 100 100
36 22 100 88 100 100 100 100 100 100 100 100 100 100 100 100 100 100 100 100 100 100 100 100 97 92 80 84 75 93 90 98 100 95 100 100 100 100 100 100 97 90 89
8 7 93 91 100 100 100 100 100 100 100 100 100 100 100 100 100 100 100 100 100 100 100 100 100 100 100 100 100 92 96 92 59 66 100 100 96 100 100 100 100 100 100
20 8 5 92 93 100 100 100 100 100 99 100 100 100 100 100 100 100 100 100 100 100 100 100 100 100 91 100 100 99 76 17 17 18 15 11 7 30 11 56 99 100 100
17 13 9 19 91 97 100 100 100 100 100 100 100 100 100 100 100 100 100 100 100 100 100 100 98 100 100 100 100 100 100 77 34 53 97 100 94 74 51 47 38 37 26
20 4 12 96 68 96 81 36 99 100 100 100 100 100 100 100 100 100 100 100 100 100 100 100 100 100 100 100 100 100 64 18 8 51 59 57 55 22 42 60 54 17 5
84 8 31 100 100 100 100 98 100 100 100 100 100 100 100 100 100 100 100 100 100 100 100 100 100 100 100 100 100 91 96 61 91 36 77 100 74 10 54 35 84 99 100
100 96 99 100 100 100 100 100 100 100 100 100 100 100 100 100 100 100 100 100 100 100 100 100 100 100 100 100 100 100 100 100 100 100 100 100 100 96 99 97 97 99 97
100 100 100 100 90 100 100 100 100 100 100 100 100 100 100 100 100 100 100 100 100 100 100 100 94 66 88 98 87 27 37 40 21 13 18 14 4 5 3 3 2 2 0